Change the Weather History Date:

Wednesday, April 30, 2014

  Actual Average Record
Temperature  
Mean Temperature 52 °F -  
Max Temperature 57 °F 73 °F 89 °F (1959)
Min Temperature 45 °F 49 °F 33 °F (1969)
Degree Days  
Heating Degree Days 14    
Growing Degree Days 2 (Base 50)    
Moisture  
Dew Point 42 °F    
Average Humidity 77    
Maximum Humidity 100    
Minimum Humidity 48    
Precipitation  
Precipitation 0.02 in - - ()
Sea Level Pressure  
Sea Level Pressure 29.84 in    
Wind  
Wind Speed 10 mph (West)    
Max Wind Speed 17 mph    
Max Gust Speed 21 mph    
Visibility 10 miles    
Events Rain    
Averages and records for this station are not official NWS values.
T = Trace of Precipitation, MM = Missing Value Source: NWS Daily Summary

Daily Weather History Graph

Daily Weather History Graph

Search for Another Location

Airport or City:

Trip Planner

Search our weather history database for the weather conditions in past years. The results will help you decide how hot, cold, wet, or windy it might be!

Date:

Astronomy

Apr. 30, 2014 Rise Set
Actual Time 6:03 AM CDT 7:50 PM CDT
Civil Twilight 5:34 AM CDT 8:18 PM CDT
Nautical Twilight 5:00 AM CDT 8:53 PM CDT
Astronomical Twilight 4:23 AM CDT 9:30 PM CDT
Moon 7:04 AM CDT (4/30) 9:28 PM CDT (4/30)
Length of Visible Light 14h 44m
Length of Day
13h 46m
New Moon, 2% of the Moon is Illuminated
Apr 30
New Moon
May 6
First Quarter
May 14
Full
May 21
Last Quarter
May 28
New

Hourly Weather History & Observations

Time (CDT) Temp. Windchill Dew Point Humidity Pressure Visibility Wind Dir Wind Speed Gust Speed Precip Events Conditions
12:58 AM 49.1 °F - 43.7 °F 82% 29.77 in 10.0 mi South 5.8 mph - N/A   Partly Cloudy
1:33 AM 48.2 °F - 44.6 °F 87% 29.74 in 10.0 mi SSW 5.8 mph - N/A   Mostly Cloudy
1:43 AM 48.2 °F - 44.6 °F 87% 29.74 in 10.0 mi SSW 5.8 mph - N/A   Scattered Clouds
1:58 AM 47.1 °F - 43.7 °F 88% 29.75 in 10.0 mi South 3.5 mph - N/A   Partly Cloudy
2:13 AM 46.4 °F 44.3 °F 44.6 °F 93% 29.74 in 10.0 mi South 4.6 mph - N/A   Mostly Cloudy
2:58 AM 49.3 °F - 45.7 °F 87% 29.76 in 10.0 mi South 8.1 mph - N/A   Overcast
3:58 AM 50.7 °F - 46.2 °F 85% 29.77 in 10.0 mi WSW 10.4 mph - N/A   Overcast
4:58 AM 50.7 °F - 46.9 °F 87% 29.78 in 10.0 mi WSW 8.1 mph - N/A   Overcast
5:48 AM 50.0 °F - 48.2 °F 94% 29.78 in 10.0 mi West 10.4 mph - N/A   Light Drizzle
5:53 AM 50.0 °F - 48.2 °F 94% 29.79 in 7.0 mi WNW 10.4 mph - N/A Rain Light Rain
5:58 AM 49.6 °F - 49.1 °F 98% 29.80 in 6.0 mi West 9.2 mph - 0.01 in Rain Rain
6:08 AM 48.2 °F - 48.2 °F 100% 29.79 in 6.0 mi NW 13.8 mph - N/A Rain Light Rain
6:13 AM 48.2 °F - 48.2 °F 100% 29.79 in 6.0 mi WNW 15.0 mph - N/A Rain Light Rain
6:23 AM 46.4 °F 39.8 °F 46.4 °F 100% 29.80 in 8.0 mi WNW 16.1 mph - N/A   Light Drizzle
6:25 AM 46.4 °F 40.7 °F 46.4 °F 100% 29.80 in 9.0 mi WNW 12.7 mph - N/A   Overcast
6:30 AM 46.4 °F 40.4 °F 46.4 °F 100% 29.80 in 9.0 mi WNW 13.8 mph - N/A   Overcast
6:45 AM 46.4 °F 41.1 °F 46.4 °F 100% 29.80 in 10.0 mi WNW 11.5 mph - N/A   Overcast
6:58 AM 47.1 °F - 46.9 °F 99% 29.81 in 10.0 mi WNW 12.7 mph - 0.01 in   Overcast
7:58 AM 47.7 °F - 44.8 °F 90% 29.82 in 10.0 mi WNW 15.0 mph - N/A   Overcast
8:38 AM 48.2 °F - 42.8 °F 82% 29.82 in 10.0 mi NW 17.3 mph - N/A   Overcast
8:58 AM 47.5 °F - 41.5 °F 80% 29.84 in 10.0 mi NW 16.1 mph - N/A   Overcast
9:58 AM 49.6 °F - 40.5 °F 71% 29.85 in 10.0 mi WNW 11.5 mph - N/A   Mostly Cloudy
10:33 AM 51.8 °F - 37.4 °F 58% 29.85 in 10.0 mi West 9.2 mph - N/A   Mostly Cloudy
10:58 AM 51.4 °F - 37.9 °F 60% 29.87 in 10.0 mi WNW 12.7 mph - N/A   Overcast
11:39 AM 50.0 °F - 37.4 °F 62% 29.87 in 10.0 mi West 13.8 mph 20.7 mph N/A   Overcast
11:58 AM 51.1 °F - 37.8 °F 60% 29.89 in 10.0 mi WNW 12.7 mph - N/A   Overcast
12:58 PM 50.9 °F - 36.9 °F 59% 29.91 in 10.0 mi West 13.8 mph - N/A   Overcast
1:58 PM 51.6 °F - 37.4 °F 58% 29.91 in 10.0 mi West 11.5 mph - N/A   Overcast
2:58 PM 52.0 °F - 36.7 °F 56% 29.92 in 10.0 mi West 11.5 mph - N/A   Overcast
3:58 PM 53.4 °F - 37.2 °F 54% 29.90 in 10.0 mi West 13.8 mph - N/A   Overcast
4:58 PM 55.2 °F - 37.6 °F 52% 29.89 in 10.0 mi West 15.0 mph - N/A   Mostly Cloudy
5:58 PM 57.2 °F - 37.6 °F 48% 29.89 in 10.0 mi WSW 15.0 mph - N/A   Mostly Cloudy
6:58 PM 55.2 °F - 36.0 °F 48% 29.89 in 10.0 mi West 10.4 mph - N/A   Partly Cloudy
7:58 PM 54.5 °F - 36.1 °F 50% 29.91 in 10.0 mi West 10.4 mph - N/A   Overcast
8:58 PM 52.9 °F - 38.8 °F 59% 29.94 in 10.0 mi West 11.5 mph - N/A   Overcast
9:58 PM 51.1 °F - 39.9 °F 66% 29.94 in 10.0 mi WSW 8.1 mph - N/A   Overcast
10:58 PM 48.6 °F - 39.7 °F 72% 29.94 in 10.0 mi SW 5.8 mph - N/A   Overcast
11:58 PM 45.9 °F 42.3 °F 39.4 °F 78% 29.94 in 10.0 mi SW 6.9 mph - N/A   Clear